TimeCDT,TemperatureF,Dew PointF,Humidity,Sea Level PressureIn,VisibilityMPH,Wind Direction,Wind SpeedMPH,Gust SpeedMPH,PrecipitationIn,Events,Conditions,WindDirDegrees,DateUTC
12:54 AM,27.0,21.0,78,30.23,10.0,WNW,5.8,-,N/A,,Clear,300,2013-03-27 05:54:00
1:54 AM,26.1,19.9,78,30.24,10.0,WNW,4.6,-,N/A,,Clear,290,2013-03-27 06:54:00
2:54 AM,21.0,18.0,88,30.23,10.0,WNW,4.6,-,N/A,,Clear,300,2013-03-27 07:54:00
3:54 AM,21.0,18.0,88,30.23,10.0,NW,4.6,-,N/A,,Clear,320,2013-03-27 08:54:00
4:54 AM,21.0,17.1,85,30.24,10.0,NW,4.6,-,N/A,,Clear,310,2013-03-27 09:54:00
5:54 AM,19.9,16.0,85,30.25,10.0,Calm,Calm,-,N/A,,Clear,0,2013-03-27 10:54:00
6:54 AM,17.1,15.1,92,30.26,10.0,Calm,Calm,-,N/A,,Clear,0,2013-03-27 11:54:00
7:54 AM,19.0,17.1,92,30.27,10.0,Calm,Calm,-,N/A,,Clear,0,2013-03-27 12:54:00
8:54 AM,30.9,21.0,67,30.26,10.0,NW,8.1,-,N/A,,Clear,310,2013-03-27 13:54:00
9:54 AM,35.1,19.9,54,30.26,10.0,NNW,15.0,-,N/A,,Clear,330,2013-03-27 14:54:00
10:54 AM,37.0,19.9,50,30.26,10.0,NNW,18.4,25.3,N/A,,Clear,330,2013-03-27 15:54:00
11:54 AM,37.9,19.9,48,30.26,10.0,NNW,16.1,-,N/A,,Clear,340,2013-03-27 16:54:00
12:54 PM,39.0,18.0,43,30.26,10.0,NNW,12.7,23.0,N/A,,Clear,330,2013-03-27 17:54:00
1:54 PM,42.1,18.0,38,30.25,10.0,NNW,9.2,-,N/A,,Clear,340,2013-03-27 18:54:00
2:54 PM,41.0,19.9,43,30.24,10.0,NNW,6.9,-,N/A,,Clear,340,2013-03-27 19:54:00
3:54 PM,43.0,18.0,37,30.24,10.0,NW,11.5,18.4,N/A,,Clear,320,2013-03-27 20:54:00
4:54 PM,42.1,19.9,41,30.23,10.0,NNW,11.5,17.3,N/A,,Clear,330,2013-03-27 21:54:00
5:54 PM,42.1,19.9,41,30.25,10.0,NNW,11.5,-,N/A,,Clear,340,2013-03-27 22:54:00
6:54 PM,37.9,21.9,53,30.26,10.0,North,8.1,-,N/A,,Clear,360,2013-03-27 23:54:00
7:54 PM,33.1,21.0,61,30.27,10.0,North,8.1,-,N/A,,Clear,360,2013-03-28 00:54:00
8:54 PM,33.1,18.0,54,30.27,10.0,NW,6.9,-,N/A,,Clear,310,2013-03-28 01:54:00
9:54 PM,27.0,19.0,72,30.28,10.0,NNW,4.6,-,N/A,,Clear,330,2013-03-28 02:54:00
10:54 PM,26.1,17.1,69,30.28,10.0,NW,4.6,-,N/A,,Clear,320,2013-03-28 03:54:00
11:54 PM,27.0,18.0,69,30.28,10.0,Calm,Calm,-,N/A,,Clear,0,2013-03-28 04:54:00